Hourly Data Report for November 25, 2020

CHESTERFIELD INLET A
NUNAVUT
Current Station Operator: NAVCAN

63°20'50.000" N
90°43'52.000" W
9.80 m
2300710
YCS

Download Data

Hourly Data (November 2020)
Hourly Data Report for November 25, 2020
TIME Temp Definition
°C
Dew Point Definition
°C
Rel Hum Definition
%
Wind Dir Definition
10's deg

Wind Spd Definition
km/h
Visibility Definition
km
Stn Press Definition
kPa
Hmdx Definition


Wind Chill Definition


Weather Definition


00:00 -23.8 -27.1 75 28 11 LegendMM 101.12   -32 LegendNANA
01:00 -23.7 -26.9 76 30 14 LegendMM 101.10   -33 LegendNANA
02:00 -24.3 -27.6 75 29 14 LegendMM 101.06   -34 LegendNANA
03:00 -25.4 -28.8 73 31 15 LegendMM 101.05   -36 LegendNANA
04:00 -23.8 -26.8 77 29 20 LegendMM 100.99   -35 LegendNANA
05:00 -24.0 -27.3 75 29 9 LegendMM 100.96   -31 LegendNANA
06:00 -24.1 -27.3 76 29 11 LegendMM 100.91   -33 LegendNANA
07:00 -23.2 -26.4 76 28 8 LegendMM 100.90   -30 LegendNANA
08:00 -23.8 -27.2 75 29 10 LegendMM 100.88   -32 LegendNANA
09:00 -23.7 -26.7 77 32 12 LegendMM 100.83   -33 LegendNANA
10:00 -22.1 -25.1 78 31 15 LegendMM 100.81   -32 LegendNANA
11:00 -22.0 -25.0 77 32 16 LegendMM 100.79   -32 LegendNANA
12:00 -21.0 -23.8 79 30 16 LegendMM 100.77   -31 LegendNANA
13:00 -19.5 -22.2 80 30 10 LegendMM 100.71   -27 LegendNANA
14:00 -19.3 -22.1 79 30 13 LegendMM 100.68   -28 LegendNANA
15:00 -18.7 -21.1 81 33 12 LegendMM 100.65   -26 LegendNANA
16:00 -17.6 -19.9 82 35 9 LegendMM 100.63   -24 LegendNANA
17:00 -17.6 -20.0 82 1 9 LegendMM 100.64   -24 LegendNANA
18:00 -17.2 -19.4 83 35 10 LegendMM 100.56   -24 LegendNANA
19:00 -16.6 -18.8 84 1 16 LegendMM 100.50   -25 LegendNANA
20:00 -16.2 -18.3 84 35 14 LegendMM 100.47   -24 LegendNANA
21:00 -15.8 -17.9 84 35 14 LegendMM 100.46   -24 LegendNANA
22:00 -14.2 -15.9 87 9 16 LegendMM 100.39   -22 LegendNANA
23:00 -14.0 -16.0 85 6 18 LegendMM 100.35   -22 LegendNANA

Notes on Data Quality.

Legend

  • E = Estimated
  • M = Missing
  • NA = Not Available*
  • [empty] = Indicates an unobserved value
Date modified: